WAX47M KMCO-CYYT

Flight info

Callsign WAX47M
Flight time 3h 43m
Altitude 41000
Route MZULO3 ETECK M202 UKOKA/M086F410 M202 ONGOT/M086F450 M202 LOMPI/N0497F450 DCT PERLU BURIN5
Aircraft C750/M-SBDE3FGHRWXY/S

Departure

Time 2026-05-05 16:07
Airport Orlando International Airport (KMCO)

Arrival

Time 2026-05-05 19:51
Airport St. John's International Airport (CYYT)
Time Latitude Longitude Altitude Speed Heading
2026-05-05 15:45 28.43281 -81.33108 89 ft 0 kts 360°
2026-05-05 15:57 28.43282 -81.33108 89 ft 0 kts 360°
2026-05-05 15:57 28.43316 -81.33107 89 ft 7 kts
2026-05-05 15:58 28.43348 -81.33056 90 ft 10 kts 92°
2026-05-05 15:58 28.43349 -81.32955 91 ft 12 kts 97°
2026-05-05 15:58 28.43270 -81.32925 91 ft 16 kts 180°
2026-05-05 15:58 28.43129 -81.32923 91 ft 21 kts 179°
2026-05-05 15:59 28.42975 -81.32922 91 ft 21 kts 180°
2026-05-05 15:59 28.42825 -81.32921 91 ft 22 kts 182°
2026-05-05 15:59 28.42693 -81.32918 91 ft 14 kts 174°
2026-05-05 15:59 28.42651 -81.32835 91 ft 14 kts 89°
2026-05-05 16:00 28.42652 -81.32697 91 ft 18 kts 93°
2026-05-05 16:00 28.42600 -81.32569 91 ft 18 kts 119°
2026-05-05 16:00 28.42529 -81.32432 91 ft 21 kts 120°
2026-05-05 16:00 28.42452 -81.32279 90 ft 22 kts 119°
2026-05-05 16:01 28.42372 -81.32121 88 ft 23 kts 124°
2026-05-05 16:01 28.42340 -81.31947 87 ft 23 kts 81°
2026-05-05 16:01 28.42348 -81.31753 85 ft 25 kts 90°
2026-05-05 16:01 28.42350 -81.31559 85 ft 24 kts 90°
2026-05-05 16:02 28.42350 -81.31370 82 ft 22 kts 88°
2026-05-05 16:02 28.42343 -81.31192 81 ft 22 kts 97°
2026-05-05 16:02 28.42317 -81.31013 81 ft 23 kts 91°
2026-05-05 16:02 28.42326 -81.30827 81 ft 24 kts 85°
2026-05-05 16:03 28.42339 -81.30646 84 ft 21 kts 86°
2026-05-05 16:03 28.42349 -81.30478 85 ft 21 kts 84°
2026-05-05 16:03 28.42358 -81.30308 85 ft 20 kts 89°
2026-05-05 16:03 28.42362 -81.30147 87 ft 21 kts 90°
2026-05-05 16:04 28.42362 -81.29979 88 ft 20 kts 90°
2026-05-05 16:04 28.42356 -81.29819 87 ft 19 kts 118°
2026-05-05 16:04 28.42228 -81.29792 87 ft 20 kts 179°
2026-05-05 16:04 28.42075 -81.29789 87 ft 24 kts 179°
2026-05-05 16:05 28.41898 -81.29788 88 ft 25 kts 179°
2026-05-05 16:05 28.41718 -81.29787 86 ft 26 kts 179°
2026-05-05 16:05 28.41521 -81.29784 84 ft 28 kts 181°
2026-05-05 16:05 28.41325 -81.29782 83 ft 28 kts 179°
2026-05-05 16:06 28.41127 -81.29780 81 ft 28 kts 179°
2026-05-05 16:06 28.40929 -81.29778 80 ft 20 kts 181°
2026-05-05 16:06 28.40821 -81.29734 78 ft 17 kts 98°
2026-05-05 16:06 28.40823 -81.29600 78 ft 16 kts 79°
2026-05-05 16:07 28.40912 -81.29561 79 ft 18 kts 360°
2026-05-05 16:07 28.41382 -81.29565 84 ft 119 kts 358°
2026-05-05 16:07 28.42512 -81.29575 151 ft 195 kts
2026-05-05 16:07 28.43973 -81.29402 927 ft 229 kts 26°
2026-05-05 16:08 28.45031 -81.28213 2517 ft 221 kts 65°
2026-05-05 16:08 28.45370 -81.26579 3872 ft 223 kts 82°
2026-05-05 16:08 28.45784 -81.24889 4948 ft 237 kts 62°
2026-05-05 16:08 28.46988 -81.23556 5949 ft 253 kts 30°
2026-05-05 16:09 28.48583 -81.22617 6938 ft 267 kts 25°
2026-05-05 16:09 28.50017 -81.21272 7914 ft 281 kts 58°
2026-05-05 16:09 28.50729 -81.19233 9105 ft 284 kts 76°
2026-05-05 16:09 28.51116 -81.17065 10134 ft 290 kts 82°
2026-05-05 16:10 28.51161 -81.14760 11045 ft 300 kts 94°
2026-05-05 16:10 28.51028 -81.12360 11646 ft 315 kts 91°
2026-05-05 16:10 28.50927 -81.09799 12135 ft 333 kts 91°
2026-05-05 16:10 28.50828 -81.07117 12623 ft 350 kts 91°
2026-05-05 16:11 28.50726 -81.04343 13276 ft 358 kts 92°
2026-05-05 16:11 28.49568 -80.95806 15453 ft 372 kts 97°
2026-05-05 16:12 28.49153 -80.92920 16110 ft 376 kts 97°
2026-05-05 16:12 28.48301 -80.86990 17361 ft 385 kts 97°
2026-05-05 16:13 28.48194 -80.77766 19368 ft 399 kts 79°
2026-05-05 16:13 28.48542 -80.74655 20052 ft 404 kts 78°
2026-05-05 16:13 28.48897 -80.71478 20709 ft 410 kts 78°
2026-05-05 16:14 28.49623 -80.64945 21919 ft 423 kts 77°
2026-05-05 16:14 28.50363 -80.58253 23125 ft 434 kts 77°
2026-05-05 16:15 28.51112 -80.51450 24480 ft 440 kts 77°
2026-05-05 16:15 28.51874 -80.44495 25678 ft 447 kts 76°
2026-05-05 16:16 28.52644 -80.37443 26883 ft 452 kts 76°
2026-05-05 16:16 28.53430 -80.30336 27876 ft 458 kts 73°
2026-05-05 16:17 28.55586 -80.23776 28926 ft 445 kts 58°
2026-05-05 16:17 28.56811 -80.20563 29456 ft 446 kts 58°
2026-05-05 16:18 28.59295 -80.14027 30208 ft 456 kts 57°
2026-05-05 16:18 28.60543 -80.10725 30709 ft 457 kts 57°
2026-05-05 16:18 28.63067 -80.04051 31531 ft 462 kts 57°
2026-05-05 16:19 28.64335 -80.00691 31925 ft 465 kts 56°
2026-05-05 16:19 28.65627 -79.97274 32242 ft 469 kts 56°
2026-05-05 16:19 28.68201 -79.90447 32956 ft 475 kts 56°
2026-05-05 16:20 28.70798 -79.83541 33732 ft 479 kts 56°
2026-05-05 16:20 28.73433 -79.76515 34573 ft 482 kts 56°
2026-05-05 16:21 28.76056 -79.69516 35527 ft 482 kts 55°
2026-05-05 16:22 28.79949 -79.59099 37026 ft 478 kts 55°
2026-05-05 16:22 28.83203 -79.52705 37703 ft 457 kts 41°
2026-05-05 16:23 28.86904 -79.46831 38509 ft 457 kts 41°
2026-05-05 16:23 28.88742 -79.43920 38904 ft 456 kts 41°
2026-05-05 16:23 28.92416 -79.38067 39736 ft 455 kts 41°
2026-05-05 16:24 28.94252 -79.35143 40052 ft 455 kts 41°
2026-05-05 16:24 28.96102 -79.32190 40304 ft 456 kts 41°
2026-05-05 16:24 28.99792 -79.26292 40748 ft 459 kts 42°
2026-05-05 16:25 29.01637 -79.23344 41117 ft 458 kts 42°
2026-05-05 16:25 29.07192 -79.14434 41083 ft 458 kts 42°
2026-05-05 16:26 29.14665 -79.02444 41111 ft 473 kts 43°
2026-05-05 16:27 29.18503 -78.96272 41095 ft 482 kts 43°
2026-05-05 16:27 29.22364 -78.90045 41109 ft 481 kts 43°
2026-05-05 16:28 29.26214 -78.83823 41085 ft 480 kts 43°
2026-05-05 16:28 29.30084 -78.77571 41087 ft 479 kts 43°
2026-05-05 16:29 29.33941 -78.71325 41091 ft 479 kts 43°
2026-05-05 16:29 29.37800 -78.65160 41091 ft 475 kts 41°
2026-05-05 16:30 29.41780 -78.59113 41104 ft 474 kts 41°
2026-05-05 16:30 29.45768 -78.53025 41098 ft 474 kts 41°
2026-05-05 16:31 29.50061 -78.47546 41130 ft 443 kts 24°
2026-05-05 16:31 29.55093 -78.43521 41112 ft 442 kts 23°
2026-05-05 16:32 29.60160 -78.39503 41098 ft 442 kts 23°
2026-05-05 16:32 29.65178 -78.35527 41097 ft 442 kts 23°
2026-05-05 16:33 29.70258 -78.31494 41084 ft 441 kts 24°
2026-05-05 16:33 29.75296 -78.27493 41074 ft 440 kts 24°
2026-05-05 16:34 29.80294 -78.23517 41083 ft 438 kts 24°
2026-05-05 16:34 29.85320 -78.19521 41080 ft 438 kts 24°
2026-05-05 16:35 29.90293 -78.15549 41074 ft 437 kts 24°
2026-05-05 16:35 29.95300 -78.11558 41089 ft 435 kts 24°
2026-05-05 16:36 30.00289 -78.07571 41075 ft 435 kts 24°
2026-05-05 16:36 30.05284 -78.03571 41088 ft 435 kts 24°
2026-05-05 16:37 30.10280 -77.99571 41079 ft 435 kts 24°
2026-05-05 16:37 30.15236 -77.95594 41106 ft 435 kts 24°
2026-05-05 16:38 30.20198 -77.91605 41101 ft 436 kts 25°
2026-05-05 16:38 30.25172 -77.87605 41098 ft 437 kts 24°
2026-05-05 16:39 30.30143 -77.83605 41101 ft 437 kts 25°
2026-05-05 16:39 30.35136 -77.79581 41102 ft 438 kts 25°
2026-05-05 16:40 30.40040 -77.75342 41062 ft 455 kts 38°
2026-05-05 16:40 30.41803 -77.72199 41142 ft 478 kts 58°
2026-05-05 16:40 30.42931 -77.68557 41155 ft 484 kts 62°
2026-05-05 16:41 30.45250 -77.61262 41107 ft 484 kts 61°
2026-05-05 16:41 30.47594 -77.53982 41106 ft 485 kts 61°
2026-05-05 16:42 30.49943 -77.46673 41113 ft 486 kts 61°
2026-05-05 16:42 30.52318 -77.39282 41125 ft 486 kts 61°
2026-05-05 16:43 30.54662 -77.31942 41102 ft 487 kts 62°
2026-05-05 16:43 30.57025 -77.24563 41106 ft 487 kts 62°
2026-05-05 16:44 30.59358 -77.17236 41112 ft 487 kts 62°
2026-05-05 16:44 30.61694 -77.09890 41115 ft 487 kts 62°
2026-05-05 16:45 30.64036 -77.02515 41129 ft 487 kts 62°
2026-05-05 16:45 30.65560 -76.99093 41111 ft 467 kts 44°
2026-05-05 16:45 30.67628 -76.96270 41126 ft 460 kts 39°
2026-05-05 16:46 30.71838 -76.90707 41123 ft 461 kts 40°
2026-05-05 16:46 30.76045 -76.85114 41125 ft 461 kts 40°
2026-05-05 16:47 30.80268 -76.79491 41118 ft 462 kts 40°
2026-05-05 16:47 30.84523 -76.73819 41123 ft 462 kts 40°
2026-05-05 16:48 30.88748 -76.68179 41129 ft 463 kts 40°
2026-05-05 16:48 30.92955 -76.62553 41132 ft 464 kts 40°
2026-05-05 16:49 30.97214 -76.56847 41135 ft 464 kts 40°
2026-05-05 16:49 31.01448 -76.51169 41133 ft 465 kts 40°
2026-05-05 16:50 31.05699 -76.45462 41130 ft 466 kts 40°
2026-05-05 16:50 31.09954 -76.39737 41130 ft 466 kts 40°
2026-05-05 16:51 31.14193 -76.34026 41134 ft 467 kts 41°
2026-05-05 16:51 31.18460 -76.28269 41118 ft 468 kts 41°
2026-05-05 16:52 31.22687 -76.22563 41133 ft 467 kts 41°
2026-05-05 16:52 31.26943 -76.16801 41126 ft 468 kts 41°
2026-05-05 16:53 31.31167 -76.11074 41130 ft 468 kts 41°
2026-05-05 16:53 31.35442 -76.05275 41124 ft 468 kts 41°
2026-05-05 16:54 31.39699 -75.99487 41140 ft 468 kts 41°
2026-05-05 16:54 31.43944 -75.93708 41141 ft 468 kts 41°
2026-05-05 16:55 31.48201 -75.87904 41142 ft 468 kts 41°
2026-05-05 16:55 31.52455 -75.82097 41144 ft 469 kts 42°
2026-05-05 16:56 31.56686 -75.76307 41150 ft 469 kts 41°
2026-05-05 16:56 31.60949 -75.70470 41153 ft 470 kts 42°
2026-05-05 16:57 31.65204 -75.64635 41151 ft 471 kts 42°
2026-05-05 16:57 31.69457 -75.58789 41152 ft 471 kts 42°
2026-05-05 16:58 31.73738 -75.52898 41160 ft 472 kts 42°
2026-05-05 16:58 31.78005 -75.47016 41158 ft 473 kts 42°
2026-05-05 16:59 31.82273 -75.41129 41158 ft 474 kts 43°
2026-05-05 16:59 31.86543 -75.35225 41149 ft 475 kts 43°
2026-05-05 17:00 31.90816 -75.29307 41145 ft 475 kts 43°
2026-05-05 17:00 31.95090 -75.23379 41149 ft 475 kts 44°
2026-05-05 17:01 31.99344 -75.17472 41147 ft 475 kts 44°
2026-05-05 17:01 32.03630 -75.11504 41148 ft 475 kts 44°
2026-05-05 17:02 32.07902 -75.05557 41152 ft 476 kts 44°
2026-05-05 17:02 32.12158 -74.99615 41156 ft 476 kts 44°
2026-05-05 17:03 32.16402 -74.93684 41136 ft 474 kts 44°
2026-05-05 17:03 32.20666 -74.87712 41147 ft 474 kts 44°
2026-05-05 17:04 32.24891 -74.81786 41140 ft 474 kts 44°
2026-05-05 17:04 32.29116 -74.75852 41160 ft 474 kts 44°
2026-05-05 17:05 32.33375 -74.69862 41162 ft 474 kts 45°
2026-05-05 17:05 32.37624 -74.63877 41170 ft 475 kts 45°
2026-05-05 17:06 32.41862 -74.57892 41172 ft 476 kts 45°
2026-05-05 17:06 32.46109 -74.51894 41172 ft 476 kts 45°
2026-05-05 17:07 32.50367 -74.45863 41174 ft 477 kts 45°
2026-05-05 17:07 32.54610 -74.39844 41177 ft 478 kts 45°
2026-05-05 17:08 32.58877 -74.33785 41178 ft 478 kts 46°
2026-05-05 17:08 32.63130 -74.27733 41168 ft 478 kts 46°
2026-05-05 17:09 32.67390 -74.21664 41166 ft 479 kts 46°
2026-05-05 17:09 32.71634 -74.15602 41169 ft 479 kts 46°
2026-05-05 17:10 32.75866 -74.09554 41173 ft 479 kts 46°
2026-05-05 17:10 32.80132 -74.03441 41176 ft 479 kts 46°
2026-05-05 17:11 32.84376 -73.97356 41174 ft 480 kts 46°
2026-05-05 17:11 32.88626 -73.91251 41173 ft 480 kts 47°
2026-05-05 17:12 32.92887 -73.85113 41180 ft 480 kts 47°
2026-05-05 17:12 32.97125 -73.79004 41189 ft 481 kts 47°
2026-05-05 17:13 33.01406 -73.72821 41180 ft 481 kts 47°
2026-05-05 17:13 33.05663 -73.66666 41193 ft 482 kts 47°
2026-05-05 17:14 33.09920 -73.60497 41184 ft 482 kts 47°
2026-05-05 17:14 33.14189 -73.54303 41191 ft 487 kts 47°
2026-05-05 17:15 33.18531 -73.47992 41194 ft 498 kts 47°
2026-05-05 17:15 33.22934 -73.41575 41203 ft 507 kts 47°
2026-05-05 17:16 33.27417 -73.35036 41397 ft 512 kts 47°
2026-05-05 17:16 33.29683 -73.31724 41597 ft 511 kts 48°
2026-05-05 17:16 33.31907 -73.28468 41800 ft 510 kts 48°
2026-05-05 17:17 33.34156 -73.25178 41947 ft 511 kts 48°
2026-05-05 17:17 33.36379 -73.21922 42098 ft 512 kts 48°
2026-05-05 17:17 33.38650 -73.18587 42240 ft 512 kts 48°
2026-05-05 17:17 33.40891 -73.15300 42392 ft 513 kts 48°
2026-05-05 17:18 33.43138 -73.11998 42512 ft 513 kts 48°
2026-05-05 17:18 33.45383 -73.08697 42657 ft 514 kts 48°
2026-05-05 17:18 33.47626 -73.05394 42827 ft 513 kts 48°
2026-05-05 17:18 33.49870 -73.02091 42996 ft 513 kts 48°
2026-05-05 17:19 33.52144 -72.98737 43098 ft 514 kts 48°
2026-05-05 17:19 33.54389 -72.95425 43284 ft 513 kts 48°
2026-05-05 17:19 33.56628 -72.92114 43440 ft 513 kts 48°
2026-05-05 17:19 33.58864 -72.88809 43555 ft 514 kts 48°
2026-05-05 17:20 33.61128 -72.85458 43688 ft 514 kts 48°
2026-05-05 17:20 33.63375 -72.82133 43829 ft 514 kts 48°
2026-05-05 17:20 33.65624 -72.78796 43942 ft 514 kts 48°
2026-05-05 17:20 33.67873 -72.75460 44088 ft 514 kts 48°
2026-05-05 17:21 33.70105 -72.72142 44203 ft 514 kts 48°
2026-05-05 17:21 33.72369 -72.68777 44315 ft 515 kts 48°
2026-05-05 17:22 33.79115 -72.58727 44639 ft 516 kts 48°
2026-05-05 17:22 33.83642 -72.51971 44834 ft 517 kts 48°
2026-05-05 17:22 33.85880 -72.48622 44962 ft 516 kts 48°
2026-05-05 17:23 33.88144 -72.45237 45082 ft 517 kts 48°
2026-05-05 17:23 33.90401 -72.41856 45207 ft 516 kts 48°
2026-05-05 17:23 33.92640 -72.38501 45200 ft 519 kts 48°
2026-05-05 17:24 33.97162 -72.31710 45203 ft 524 kts 49°
2026-05-05 17:24 34.01771 -72.24923 45200 ft 527 kts 48°
2026-05-05 17:25 34.06452 -72.18054 45205 ft 531 kts 48°
2026-05-05 17:25 34.11153 -72.11150 45204 ft 535 kts 48°
2026-05-05 17:26 34.15870 -72.04200 45212 ft 538 kts 48°
2026-05-05 17:26 34.20586 -71.97245 45214 ft 541 kts 49°
2026-05-05 17:27 34.25339 -71.90220 45214 ft 543 kts 49°
2026-05-05 17:27 34.30115 -71.83145 45214 ft 545 kts 49°
2026-05-05 17:28 34.34911 -71.76031 45216 ft 546 kts 49°
2026-05-05 17:28 34.39699 -71.68911 45216 ft 547 kts 49°
2026-05-05 17:29 34.44467 -71.61804 45217 ft 548 kts 49°
2026-05-05 17:29 34.49269 -71.54636 45217 ft 549 kts 49°
2026-05-05 17:30 34.54055 -71.47478 45219 ft 549 kts 49°
2026-05-05 17:30 34.58872 -71.40256 45220 ft 550 kts 49°
2026-05-05 17:31 34.63679 -71.33038 45214 ft 550 kts 49°
2026-05-05 17:31 34.68442 -71.25865 45211 ft 550 kts 49°
2026-05-05 17:32 34.73234 -71.18639 45213 ft 550 kts 49°
2026-05-05 17:32 34.78015 -71.11411 45213 ft 550 kts 50°
2026-05-05 17:33 34.82784 -71.04189 45214 ft 550 kts 50°
2026-05-05 17:33 34.87571 -70.96921 45215 ft 550 kts 50°
2026-05-05 17:34 34.92348 -70.89658 45217 ft 550 kts 50°
2026-05-05 17:34 34.97109 -70.82400 45219 ft 550 kts 50°
2026-05-05 17:35 35.01848 -70.75162 45224 ft 551 kts 50°
2026-05-05 17:35 35.06621 -70.67859 45223 ft 551 kts 50°
2026-05-05 17:36 35.11377 -70.60564 45222 ft 551 kts 50°
2026-05-05 17:36 35.16145 -70.53235 45222 ft 551 kts 50°
2026-05-05 17:37 35.20876 -70.45949 45225 ft 551 kts 50°
2026-05-05 17:37 35.25642 -70.38597 45225 ft 551 kts 50°
2026-05-05 17:38 35.30354 -70.31308 45213 ft 550 kts 51°
2026-05-05 17:38 35.35095 -70.23960 45220 ft 550 kts 51°
2026-05-05 17:39 35.39823 -70.16615 45220 ft 550 kts 51°
2026-05-05 17:39 35.44535 -70.09280 45224 ft 550 kts 51°
2026-05-05 17:40 35.49252 -70.01926 45232 ft 551 kts 51°
2026-05-05 17:40 35.53984 -69.94529 45224 ft 551 kts 51°
2026-05-05 17:41 35.58699 -69.87143 45217 ft 552 kts 51°
2026-05-05 17:41 35.63424 -69.79729 45217 ft 552 kts 51°
2026-05-05 17:42 35.68150 -69.72292 45218 ft 552 kts 51°
2026-05-05 17:42 35.72852 -69.64881 45220 ft 552 kts 51°
2026-05-05 17:43 35.77560 -69.57445 45219 ft 552 kts 51°
2026-05-05 17:43 35.82267 -69.49995 45219 ft 553 kts 51°
2026-05-05 17:44 35.86964 -69.42539 45221 ft 552 kts 51°
2026-05-05 17:44 35.91684 -69.35037 45220 ft 553 kts 51°
2026-05-05 17:45 35.96363 -69.27580 45211 ft 553 kts 52°
2026-05-05 17:45 36.01064 -69.20072 45213 ft 552 kts 52°
2026-05-05 17:46 36.05728 -69.12605 45218 ft 552 kts 52°
2026-05-05 17:46 36.10403 -69.05103 45215 ft 553 kts 52°
2026-05-05 17:47 36.15098 -68.97558 45223 ft 553 kts 52°
2026-05-05 17:47 36.19803 -68.89980 45228 ft 553 kts 52°
2026-05-05 17:48 36.24468 -68.82447 45226 ft 553 kts 52°
2026-05-05 17:48 36.29141 -68.74887 45222 ft 554 kts 52°
2026-05-05 17:49 36.33552 -68.67734 45222 ft 554 kts 52°
2026-05-05 17:49 36.38071 -68.60387 45220 ft 554 kts 52°
2026-05-05 17:50 36.42634 -68.52954 45227 ft 554 kts 52°
2026-05-05 17:50 36.47270 -68.45390 45223 ft 554 kts 52°
2026-05-05 17:51 36.51943 -68.37742 45222 ft 555 kts 52°
2026-05-05 17:51 36.56595 -68.30113 45217 ft 556 kts 52°
2026-05-05 17:52 36.61234 -68.22492 45219 ft 556 kts 52°
2026-05-05 17:52 36.65900 -68.14806 45215 ft 556 kts 52°
2026-05-05 17:53 36.70528 -68.07162 45213 ft 557 kts 52°
2026-05-05 17:53 36.75206 -67.99421 45222 ft 558 kts 52°
2026-05-05 17:54 36.79852 -67.91718 45238 ft 558 kts 52°
2026-05-05 17:54 36.84500 -67.83987 45242 ft 559 kts 52°
2026-05-05 17:55 36.89151 -67.76238 45238 ft 559 kts 52°
2026-05-05 17:55 36.93787 -67.68497 45241 ft 559 kts 52°
2026-05-05 17:56 36.98412 -67.60752 45239 ft 560 kts 53°
2026-05-05 17:56 37.03070 -67.52934 45242 ft 560 kts 52°
2026-05-05 17:57 37.07705 -67.45143 45246 ft 561 kts 52°
2026-05-05 17:57 37.12358 -67.37300 45238 ft 561 kts 53°
2026-05-05 17:58 37.16998 -67.29464 45229 ft 561 kts 53°
2026-05-05 17:58 37.21611 -67.21646 45233 ft 561 kts 53°
2026-05-05 17:59 37.26254 -67.13763 45232 ft 561 kts 53°
2026-05-05 17:59 37.30859 -67.05931 45234 ft 561 kts 53°
2026-05-05 18:00 37.35472 -66.98058 45235 ft 561 kts 53°
2026-05-05 18:00 37.40097 -66.90154 45240 ft 561 kts 53°
2026-05-05 18:01 37.44703 -66.82259 45241 ft 561 kts 53°
2026-05-05 18:01 37.49305 -66.74355 45238 ft 561 kts 53°
2026-05-05 18:02 37.53899 -66.66444 45241 ft 561 kts 53°
2026-05-05 18:02 37.58486 -66.58529 45247 ft 563 kts 53°
2026-05-05 18:03 37.63093 -66.50556 45236 ft 564 kts 53°
2026-05-05 18:03 37.67709 -66.42551 45241 ft 563 kts 53°
2026-05-05 18:04 37.72275 -66.34616 45257 ft 562 kts 54°
2026-05-05 18:04 37.76860 -66.26620 45253 ft 561 kts 54°
2026-05-05 18:05 37.81418 -66.18652 45251 ft 560 kts 54°
2026-05-05 18:05 37.85936 -66.10738 45256 ft 559 kts 54°
2026-05-05 18:06 37.90489 -66.02745 45259 ft 559 kts 54°
2026-05-05 18:06 37.95019 -65.94774 45254 ft 558 kts 54°
2026-05-05 18:07 37.99579 -65.86732 45258 ft 558 kts 54°
2026-05-05 18:07 38.02534 -65.81511 45280 ft 557 kts 54°
2026-05-05 18:08 38.06474 -65.74532 45254 ft 559 kts 54°
2026-05-05 18:08 38.10976 -65.66541 45240 ft 560 kts 54°
2026-05-05 18:09 38.15391 -65.58685 45238 ft 560 kts 54°
2026-05-05 18:09 38.19716 -65.50974 45247 ft 561 kts 54°
2026-05-05 18:10 38.24238 -65.42890 45246 ft 561 kts 54°
2026-05-05 18:10 38.28731 -65.34837 45248 ft 562 kts 54°
2026-05-05 18:11 38.33237 -65.26739 45241 ft 562 kts 54°
2026-05-05 18:11 38.37771 -65.18573 45244 ft 562 kts 54°
2026-05-05 18:12 38.42240 -65.10504 45243 ft 562 kts 54°
2026-05-05 18:12 38.46759 -65.02329 45245 ft 562 kts 54°
2026-05-05 18:13 38.51413 -64.94386 45232 ft 560 kts 46°
2026-05-05 18:13 38.56689 -64.87155 45250 ft 560 kts 46°
2026-05-05 18:14 38.61959 -64.79827 45247 ft 561 kts 46°
2026-05-05 18:14 38.67244 -64.72457 45247 ft 562 kts 46°
2026-05-05 18:15 38.71735 -64.66177 45245 ft 562 kts 46°
2026-05-05 18:15 38.76981 -64.58832 45244 ft 563 kts 46°
2026-05-05 18:16 38.82257 -64.51417 45245 ft 563 kts 46°
2026-05-05 18:16 38.87486 -64.44057 45245 ft 562 kts 46°
2026-05-05 18:17 38.92737 -64.36646 45244 ft 562 kts 46°
2026-05-05 18:17 38.97982 -64.29230 45236 ft 562 kts 46°
2026-05-05 18:18 39.03222 -64.21801 45234 ft 562 kts 46°
2026-05-05 18:18 39.08452 -64.14368 45234 ft 562 kts 46°
2026-05-05 18:19 39.13685 -64.06912 45225 ft 562 kts 46°
2026-05-05 18:19 39.18897 -63.99472 45240 ft 564 kts 46°
2026-05-05 18:20 39.24129 -63.91981 45221 ft 564 kts 46°
2026-05-05 18:20 39.29393 -63.84431 45225 ft 564 kts 46°
2026-05-05 18:21 39.34616 -63.76917 45228 ft 563 kts 46°
2026-05-05 18:21 39.39830 -63.69401 45239 ft 562 kts 46°
2026-05-05 18:22 39.44915 -63.62052 45248 ft 562 kts 46°
2026-05-05 18:22 39.49504 -63.55401 45249 ft 562 kts 46°
2026-05-05 18:23 39.54673 -63.47905 45248 ft 562 kts 46°
2026-05-05 18:23 39.59870 -63.40335 45261 ft 562 kts 46°
2026-05-05 18:24 39.65047 -63.32783 45246 ft 562 kts 47°
2026-05-05 18:24 39.70221 -63.25213 45246 ft 562 kts 47°
2026-05-05 18:25 39.75409 -63.17609 45255 ft 563 kts 47°
2026-05-05 18:25 39.80593 -63.09996 45254 ft 563 kts 46°
2026-05-05 18:26 39.85774 -63.02361 45258 ft 563 kts 47°
2026-05-05 18:26 39.90926 -62.94749 45259 ft 563 kts 47°
2026-05-05 18:27 39.96114 -62.87073 45258 ft 563 kts 46°
2026-05-05 18:27 40.01252 -62.79447 45253 ft 564 kts 47°
2026-05-05 18:28 40.08986 -62.67932 45240 ft 564 kts 46°
2026-05-05 18:28 40.14144 -62.60222 45242 ft 564 kts 46°
2026-05-05 18:29 40.19313 -62.52487 45247 ft 564 kts 46°
2026-05-05 18:29 40.24463 -62.44757 45243 ft 563 kts 46°
2026-05-05 18:30 40.29568 -62.37070 45242 ft 562 kts 46°
2026-05-05 18:30 40.34704 -62.29325 45229 ft 562 kts 47°
2026-05-05 18:31 40.38380 -62.23761 45238 ft 561 kts 47°
2026-05-05 18:31 40.43485 -62.16031 45235 ft 561 kts 47°
2026-05-05 18:32 40.48594 -62.08267 45245 ft 561 kts 47°
2026-05-05 18:32 40.53702 -62.00486 45246 ft 562 kts 47°
2026-05-05 18:33 40.58769 -61.92754 45242 ft 562 kts 47°
2026-05-05 18:33 40.63851 -61.84968 45243 ft 562 kts 47°
2026-05-05 18:34 40.68930 -61.77179 45247 ft 562 kts 47°
2026-05-05 18:34 40.73999 -61.69378 45249 ft 562 kts 47°
2026-05-05 18:35 40.79056 -61.61575 45242 ft 562 kts 47°
2026-05-05 18:35 40.84129 -61.53735 45244 ft 562 kts 47°
2026-05-05 18:36 40.89192 -61.45884 45245 ft 562 kts 47°
2026-05-05 18:36 40.94231 -61.38047 45247 ft 562 kts 47°
2026-05-05 18:37 40.99285 -61.30174 45241 ft 561 kts 48°
2026-05-05 18:37 41.04320 -61.22307 45255 ft 560 kts 48°
2026-05-05 18:38 41.09346 -61.14434 45247 ft 560 kts 48°
2026-05-05 18:38 41.14333 -61.06597 45245 ft 560 kts 48°
2026-05-05 18:39 41.19368 -60.98672 45242 ft 559 kts 48°
2026-05-05 18:39 41.24374 -60.90767 45241 ft 560 kts 48°
2026-05-05 18:40 41.29146 -60.83215 45245 ft 559 kts 48°
2026-05-05 18:40 41.34143 -60.75280 45246 ft 560 kts 48°
2026-05-05 18:41 41.39143 -60.67325 45273 ft 560 kts 47°
2026-05-05 18:41 41.44123 -60.59387 45257 ft 562 kts 47°
2026-05-05 18:42 41.49112 -60.51402 45253 ft 562 kts 47°
2026-05-05 18:42 41.54098 -60.43409 45243 ft 562 kts 47°
2026-05-05 18:43 41.59063 -60.35421 45249 ft 561 kts 47°
2026-05-05 18:43 41.64025 -60.27426 45254 ft 561 kts 48°
2026-05-05 18:44 41.68969 -60.19434 45247 ft 560 kts 48°
2026-05-05 18:44 41.73694 -60.11773 45257 ft 560 kts 49°
2026-05-05 18:45 41.78669 -60.03684 45261 ft 560 kts 48°
2026-05-05 18:45 41.83630 -59.95604 45252 ft 560 kts 48°
2026-05-05 18:46 41.88530 -59.87599 45253 ft 560 kts 48°
2026-05-05 18:46 41.93460 -59.79522 45255 ft 560 kts 48°
2026-05-05 18:47 41.98406 -59.71397 45245 ft 560 kts 48°
2026-05-05 18:47 42.03292 -59.63351 45245 ft 560 kts 48°
2026-05-05 18:48 42.08196 -59.55250 45242 ft 559 kts 49°
2026-05-05 18:48 42.13128 -59.47089 45243 ft 559 kts 48°
2026-05-05 18:49 42.18011 -59.38978 45238 ft 559 kts 48°
2026-05-05 18:49 42.22891 -59.30853 45236 ft 559 kts 49°
2026-05-05 18:50 42.27785 -59.22683 45239 ft 559 kts 49°
2026-05-05 18:50 42.32654 -59.14529 45239 ft 559 kts 49°
2026-05-05 18:51 42.37537 -59.06330 45237 ft 558 kts 49°
2026-05-05 18:51 42.42407 -58.98137 45247 ft 558 kts 49°
2026-05-05 18:52 42.47240 -58.89977 45238 ft 558 kts 49°
2026-05-05 18:52 42.52081 -58.81781 45235 ft 558 kts 49°
2026-05-05 18:53 42.56914 -58.73578 45235 ft 558 kts 49°
2026-05-05 18:53 42.61739 -58.65370 45239 ft 558 kts 49°
2026-05-05 18:54 42.66549 -58.57158 45236 ft 559 kts 49°
2026-05-05 18:54 42.71347 -58.48945 45242 ft 558 kts 49°
2026-05-05 18:55 42.76165 -58.40678 45242 ft 557 kts 49°
2026-05-05 18:55 42.80959 -58.32431 45228 ft 557 kts 50°
2026-05-05 18:56 42.85734 -58.24187 45233 ft 556 kts 50°
2026-05-05 18:56 42.90435 -58.16053 45276 ft 556 kts 50°
2026-05-05 18:57 42.95245 -58.07706 45216 ft 558 kts 50°
2026-05-05 18:57 43.00023 -57.99392 45231 ft 557 kts 50°
2026-05-05 18:58 43.04775 -57.91092 45236 ft 557 kts 50°
2026-05-05 18:58 43.10257 -57.83769 45271 ft 544 kts 27°
2026-05-05 18:59 43.16614 -57.78164 45239 ft 547 kts 30°
2026-05-05 18:59 43.22963 -57.72313 45227 ft 548 kts 30°
2026-05-05 19:00 43.29255 -57.66493 45232 ft 548 kts 31°
2026-05-05 19:00 43.35607 -57.60605 45222 ft 548 kts 31°
2026-05-05 19:01 43.41912 -57.54739 45233 ft 548 kts 31°
2026-05-05 19:01 43.48202 -57.48877 45220 ft 548 kts 31°
2026-05-05 19:02 43.54459 -57.43028 45218 ft 547 kts 31°
2026-05-05 19:02 43.60741 -57.37140 45219 ft 547 kts 31°
2026-05-05 19:03 43.67065 -57.31200 45213 ft 547 kts 31°
2026-05-05 19:03 43.73322 -57.25310 45215 ft 547 kts 32°
2026-05-05 19:04 43.79625 -57.19353 45211 ft 548 kts 32°
2026-05-05 19:04 43.85903 -57.13412 45205 ft 548 kts 32°
2026-05-05 19:05 43.92209 -57.07420 45206 ft 547 kts 31°
2026-05-05 19:05 43.98466 -57.01470 45193 ft 547 kts 31°
2026-05-05 19:06 44.04689 -56.95402 45163 ft 541 kts 22°
2026-05-05 19:06 44.11356 -56.90450 45199 ft 544 kts 27°
2026-05-05 19:07 44.17831 -56.85020 45183 ft 545 kts 28°
2026-05-05 19:07 44.24349 -56.79517 45178 ft 545 kts 28°
2026-05-05 19:08 44.30835 -56.74023 45189 ft 546 kts 28°
2026-05-05 19:08 44.37328 -56.68510 45177 ft 546 kts 28°
2026-05-05 19:09 44.43827 -56.62976 45179 ft 546 kts 28°
2026-05-05 19:09 44.50312 -56.57442 45176 ft 547 kts 28°
2026-05-05 19:10 44.56804 -56.51889 45178 ft 547 kts 28°
2026-05-05 19:10 44.63297 -56.46313 45178 ft 546 kts 28°
2026-05-05 19:11 44.69785 -56.40734 45167 ft 547 kts 28°
2026-05-05 19:11 44.76238 -56.35166 45170 ft 546 kts 28°
2026-05-05 19:12 44.82718 -56.29563 45159 ft 546 kts 29°
2026-05-05 19:12 44.89185 -56.23954 45159 ft 546 kts 29°
2026-05-05 19:13 44.95669 -56.18319 45159 ft 546 kts 29°
2026-05-05 19:13 45.02140 -56.12672 45156 ft 547 kts 29°
2026-05-05 19:14 45.08627 -56.07003 45155 ft 547 kts 29°
2026-05-05 19:14 45.15091 -56.01335 45156 ft 547 kts 29°
2026-05-05 19:15 45.21545 -55.95662 45153 ft 546 kts 28°
2026-05-05 19:15 45.28011 -55.89966 45140 ft 546 kts 29°
2026-05-05 19:16 45.34482 -55.84246 45144 ft 547 kts 29°
2026-05-05 19:16 45.40960 -55.78507 45147 ft 547 kts 28°
2026-05-05 19:17 45.47370 -55.72810 45134 ft 547 kts 29°
2026-05-05 19:17 45.53822 -55.67061 45126 ft 547 kts 29°
2026-05-05 19:18 45.60270 -55.61301 45125 ft 547 kts 29°
2026-05-05 19:18 45.66684 -55.55556 45120 ft 547 kts 29°
2026-05-05 19:19 45.73110 -55.49782 45118 ft 547 kts 29°
2026-05-05 19:19 45.79577 -55.43954 45119 ft 547 kts 29°
2026-05-05 19:20 45.85977 -55.38176 45119 ft 547 kts 29°
2026-05-05 19:20 45.92385 -55.32370 45102 ft 547 kts 30°
2026-05-05 19:21 45.98822 -55.26522 45105 ft 547 kts 30°
2026-05-05 19:21 46.05260 -55.20661 45090 ft 547 kts 30°
2026-05-05 19:22 46.11681 -55.14793 45096 ft 548 kts 30°
2026-05-05 19:22 46.18115 -55.08902 45101 ft 548 kts 30°
2026-05-05 19:23 46.24560 -55.02980 45095 ft 548 kts 30°
2026-05-05 19:23 46.31004 -54.97044 45093 ft 547 kts 30°
2026-05-05 19:24 46.37384 -54.91153 45095 ft 547 kts 30°
2026-05-05 19:24 46.43807 -54.85197 45093 ft 544 kts 30°
2026-05-05 19:25 46.50098 -54.79352 45085 ft 536 kts 30°
2026-05-05 19:25 46.56351 -54.73531 45091 ft 529 kts 30°
2026-05-05 19:26 46.62475 -54.67806 45085 ft 523 kts 30°
2026-05-05 19:26 46.68592 -54.62073 45076 ft 517 kts 30°
2026-05-05 19:27 46.74575 -54.56456 45078 ft 509 kts 30°
2026-05-05 19:27 46.77537 -54.53667 44657 ft 505 kts 29°
2026-05-05 19:27 46.80501 -54.50875 43938 ft 504 kts 29°
2026-05-05 19:28 46.83421 -54.48115 43225 ft 501 kts 29°
2026-05-05 19:28 46.86341 -54.45356 42470 ft 497 kts 28°
2026-05-05 19:28 46.89269 -54.42587 41478 ft 501 kts 28°
2026-05-05 19:28 46.92179 -54.39829 40666 ft 499 kts 28°
2026-05-05 19:29 46.95079 -54.37075 39860 ft 499 kts 28°
2026-05-05 19:29 46.97962 -54.34333 39031 ft 497 kts 28°
2026-05-05 19:29 47.00848 -54.31589 38192 ft 495 kts 28°
2026-05-05 19:29 47.03734 -54.28837 37547 ft 488 kts 27°
2026-05-05 19:30 47.06537 -54.26165 36927 ft 479 kts 27°
2026-05-05 19:30 47.09325 -54.23502 36246 ft 472 kts 26°
2026-05-05 19:30 47.12031 -54.20914 35590 ft 465 kts 26°
2026-05-05 19:30 47.14722 -54.18335 34870 ft 458 kts 25°
2026-05-05 19:31 47.17364 -54.15806 33825 ft 456 kts 25°
2026-05-05 19:31 47.20045 -54.13249 32357 ft 460 kts 25°
2026-05-05 19:31 47.22708 -54.10704 30805 ft 468 kts 25°
2026-05-05 19:31 47.25410 -54.08091 29977 ft 452 kts 26°
2026-05-05 19:32 47.27905 -54.05451 29246 ft 443 kts 34°
2026-05-05 19:32 47.29742 -54.01825 28508 ft 448 kts 55°
2026-05-05 19:32 47.30994 -53.97669 27784 ft 437 kts 59°
2026-05-05 19:32 47.32158 -53.93641 27130 ft 426 kts 60°
2026-05-05 19:33 47.33294 -53.89653 26559 ft 414 kts 60°
2026-05-05 19:33 47.34386 -53.85831 26061 ft 403 kts 60°
2026-05-05 19:33 47.35457 -53.82055 25576 ft 393 kts 60°
2026-05-05 19:33 47.36491 -53.78405 25076 ft 385 kts 59°
2026-05-05 19:34 47.37508 -53.74824 24543 ft 379 kts 59°
2026-05-05 19:34 47.38518 -53.71268 23975 ft 379 kts 59°
2026-05-05 19:34 47.39541 -53.67649 23370 ft 379 kts 60°
2026-05-05 19:35 47.41559 -53.60504 22212 ft 379 kts 60°
2026-05-05 19:35 47.42563 -53.56944 21639 ft 378 kts 59°
2026-05-05 19:35 47.43556 -53.53408 21075 ft 377 kts 59°
2026-05-05 19:35 47.44560 -53.49826 20500 ft 376 kts 60°
2026-05-05 19:36 47.45555 -53.46274 19926 ft 375 kts 60°
2026-05-05 19:36 47.46537 -53.42767 19363 ft 374 kts 60°
2026-05-05 19:36 47.47528 -53.39215 18797 ft 371 kts 60°
2026-05-05 19:36 47.48474 -53.35813 18250 ft 356 kts 59°
2026-05-05 19:37 47.49410 -53.32458 17706 ft 347 kts 60°
2026-05-05 19:37 47.50321 -53.29201 17200 ft 349 kts 61°
2026-05-05 19:37 47.51244 -53.25874 16688 ft 350 kts 61°
2026-05-05 19:37 47.52167 -53.22547 16172 ft 350 kts 61°
2026-05-05 19:38 47.53077 -53.19269 15649 ft 348 kts 61°
2026-05-05 19:38 47.53988 -53.15967 15128 ft 346 kts 62°
2026-05-05 19:38 47.54887 -53.12717 14580 ft 344 kts 62°
2026-05-05 19:38 47.55786 -53.09456 14028 ft 341 kts 62°
2026-05-05 19:39 47.56677 -53.06225 13499 ft 337 kts 62°
2026-05-05 19:39 47.57552 -53.03046 12915 ft 334 kts 62°
2026-05-05 19:39 47.58409 -52.99921 12344 ft 329 kts 62°
2026-05-05 19:39 47.59257 -52.96828 11760 ft 325 kts 62°
2026-05-05 19:40 47.60104 -52.93747 11185 ft 324 kts 62°
2026-05-05 19:40 47.60957 -52.90634 10578 ft 322 kts 62°
2026-05-05 19:40 47.61776 -52.87632 10045 ft 313 kts 62°
2026-05-05 19:40 47.62551 -52.84775 10009 ft 294 kts 62°
2026-05-05 19:41 47.63296 -52.82044 9947 ft 276 kts 62°
2026-05-05 19:41 47.64004 -52.79445 9539 ft 272 kts 61°
2026-05-05 19:41 47.64710 -52.76868 9015 ft 272 kts 62°
2026-05-05 19:41 47.65415 -52.74268 8459 ft 273 kts 62°
2026-05-05 19:42 47.66122 -52.71647 7896 ft 275 kts 62°
2026-05-05 19:42 47.66842 -52.69000 7329 ft 276 kts 62°
2026-05-05 19:42 47.67549 -52.66404 6837 ft 274 kts 62°
2026-05-05 19:42 47.68257 -52.63802 6267 ft 276 kts 62°
2026-05-05 19:43 47.68974 -52.61154 5690 ft 277 kts 63°
2026-05-05 19:43 47.69688 -52.58540 5139 ft 277 kts 64°
2026-05-05 19:43 47.70356 -52.55953 5084 ft 256 kts 64°
2026-05-05 19:43 47.70585 -52.53415 4874 ft 248 kts 106°
2026-05-05 19:44 47.69719 -52.51479 4834 ft 213 kts 150°
2026-05-05 19:44 47.68477 -52.50274 4234 ft 217 kts 168°
2026-05-05 19:44 47.67119 -52.49939 4092 ft 181 kts 201°
2026-05-05 19:44 47.66114 -52.50748 3785 ft 158 kts 231°
2026-05-05 19:45 47.65300 -52.51811 3512 ft 157 kts 230°
2026-05-05 19:45 47.64509 -52.52903 3096 ft 159 kts 231°
2026-05-05 19:45 47.63916 -52.54148 2850 ft 137 kts 253°
2026-05-05 19:45 47.63660 -52.55386 2826 ft 117 kts 256°
2026-05-05 19:46 47.63488 -52.56457 2743 ft 98 kts 261°
2026-05-05 19:46 47.63398 -52.57346 2534 ft 78 kts 261°
2026-05-05 19:46 47.63305 -52.58136 2319 ft 80 kts 256°
2026-05-05 19:46 47.63217 -52.58963 2141 ft 83 kts 265°
2026-05-05 19:47 47.63211 -52.59836 2017 ft 85 kts 265°
2026-05-05 19:47 47.63206 -52.60737 1954 ft 86 kts 265°
2026-05-05 19:47 47.63166 -52.61633 1820 ft 88 kts 261°
2026-05-05 19:47 47.63111 -52.62488 1749 ft 82 kts 261°
2026-05-05 19:48 47.63072 -52.63365 1535 ft 87 kts 262°
2026-05-05 19:48 47.63007 -52.64212 1501 ft 81 kts 262°
2026-05-05 19:48 47.62975 -52.65032 1456 ft 76 kts 264°
2026-05-05 19:48 47.62949 -52.65836 1347 ft 79 kts 262°
2026-05-05 19:49 47.62912 -52.66669 1296 ft 83 kts 263°
2026-05-05 19:49 47.62859 -52.67551 1159 ft 92 kts 263°
2026-05-05 19:49 47.62794 -52.68489 1178 ft 90 kts 262°
2026-05-05 19:49 47.62752 -52.69415 1053 ft 91 kts 263°
2026-05-05 19:50 47.62694 -52.70371 925 ft 91 kts 262°
2026-05-05 19:50 47.62648 -52.71283 818 ft 89 kts 264°
2026-05-05 19:50 47.62603 -52.72194 668 ft 91 kts 264°
2026-05-05 19:50 47.62558 -52.73132 532 ft 92 kts 265°
2026-05-05 19:51 47.62510 -52.74110 433 ft 95 kts 264°
2026-05-05 19:51 47.62468 -52.74973 442 ft 70 kts 265°
2026-05-05 19:51 47.62438 -52.75584 463 ft 42 kts 269°
2026-05-05 19:51 47.62423 -52.75879 476 ft 22 kts 265°
2026-05-05 19:52 47.62413 -52.76065 484 ft 15 kts 267°
2026-05-05 19:52 47.62405 -52.76222 486 ft 15 kts 264°
2026-05-05 19:52 47.62398 -52.76379 488 ft 16 kts 265°
2026-05-05 19:52 47.62388 -52.76571 483 ft 20 kts 265°
2026-05-05 19:53 47.62367 -52.76752 478 ft 12 kts 214°
2026-05-05 19:53 47.62313 -52.76813 480 ft 10 kts 279°
2026-05-05 19:53 47.62376 -52.76780 477 ft 17 kts 74°
2026-05-05 19:53 47.62391 -52.76573 483 ft 21 kts 86°
2026-05-05 19:54 47.62401 -52.76356 488 ft 21 kts 85°
2026-05-05 19:54 47.62413 -52.76110 485 ft 26 kts 86°
2026-05-05 19:54 47.62427 -52.75808 472 ft 33 kts 85°
2026-05-05 19:54 47.62445 -52.75434 456 ft 39 kts 86°
2026-05-05 19:55 47.62465 -52.75005 444 ft 44 kts 86°
2026-05-05 19:55 47.62482 -52.74528 427 ft 39 kts 86°
2026-05-05 19:55 47.62508 -52.74159 415 ft 36 kts 87°
2026-05-05 19:55 47.62521 -52.73887 410 ft 18 kts 87°
2026-05-05 19:56 47.62428 -52.73803 410 ft 15 kts 195°
2026-05-05 19:56 47.62343 -52.73775 411 ft 13 kts 137°
2026-05-05 19:56 47.62257 -52.73728 410 ft 13 kts 175°
2026-05-05 19:56 47.62171 -52.73719 411 ft 10 kts 177°
2026-05-05 19:57 47.62108 -52.73714 412 ft 7 kts 175°
2026-05-05 19:57 47.62061 -52.73704 413 ft 6 kts 174°
2026-05-05 19:57 47.62039 -52.73678 412 ft 5 kts 84°
2026-05-05 19:57 47.62025 -52.73629 411 ft 5 kts 172°
2026-05-05 19:58 47.62022 -52.73629 411 ft 0 kts 176°